Flag for Norway Weather past 2 weeks in Sandefjord, Norway

Now
59 °F

Scattered clouds.


Feels Like: 57 °F
Forecast: 49 / 63 °F
Wind: 12 mph from South

Location: Torp

Current Time: Sep 3, 2015 at 3:52:56 PM

Latest Report: Sep 3, 2015 at 2:50 PM


Visibility: N/A

Pressure: 29.86 "Hg

Humidity: 72%

Dew point: 50 °F

Location of SandefjordLocation

Historic Weather in Sandefjord — Graph

°F

Sandefjord temperature yesterday

Maximum temperature yesterday: 63 °F (at 2:50 PM)
Minimum temperature yesterday: 54 °F (at 1:20 AM)
Average temperature yesterday: 57 °F

Past Weeks' High & Low Weather Summary

 TemperatureHumidityPressure
High75 °F (Aug 23, 3:50 PM)100% (Aug 20, 5:50 AM)30.36 "Hg (Aug 20, 5:50 AM)
Low48 °F (Aug 21, 6:20 AM)38% (Aug 19, 5:50 PM)29.50 "Hg (Aug 27, 5:20 PM)
Average60 °F82%29.96 "Hg
* Reported Aug 19 2:20 PM — Sep 3 2:20 PM, Sandefjord, Weather by CustomWeather, © 2015

Note: Actual official high and low records may vary slightly from our data, if they occured in-between our weather recording intervals... More about our weather records

Advertising

Sandefjord weather history for previous 24 hours

 ConditionsComfort  
Time TempWeatherWind HumidityBarometerVisibility
2:20 PM
Thu, Sep 3
61 °FScattered clouds.10 mph72%29.86 "HgN/A
1:50 PM59 °FScattered clouds.10 mph77%29.86 "HgN/A
1:20 PM61 °FScattered clouds.12 mph72%29.86 "HgN/A
12:50 PM63 °FPartly sunny.10 mph68%29.86 "HgN/A
12:20 PM61 °FBroken clouds.12 mph72%29.86 "HgN/A
11:50 AM61 °FPartly sunny.12 mph77%29.86 "HgN/A
11:20 AM61 °FPartly sunny.13 mph72%29.83 "HgN/A
10:50 AM61 °FScattered clouds.9 mph77%29.83 "HgN/A
10:20 AM59 °FScattered clouds.9 mph88%29.83 "HgN/A
9:50 AM59 °FScattered clouds.8 mph88%29.83 "HgN/A
9:20 AM57 °FScattered clouds.3 mph94%29.80 "HgN/A
8:50 AM57 °FScattered clouds.3 mph94%29.80 "HgN/A
8:20 AM55 °FScattered clouds.5 mph100%29.80 "HgN/A
7:50 AM55 °FScattered clouds.1 mph100%29.80 "HgN/A
7:20 AM54 °FScattered clouds.2 mph100%29.80 "HgN/A
6:50 AM54 °FPassing clouds.1 mph100%29.77 "Hg4 mi
6:20 AM54 °FPassing clouds.1 mph100%29.77 "HgN/A
5:50 AM54 °FPassing clouds.2 mph100%29.77 "HgN/A
5:20 AM54 °FPassing clouds.2 mph100%29.77 "HgN/A
4:50 AM54 °FPassing clouds.2 mph100%29.74 "HgN/A
4:20 AM54 °FPartly cloudy.3 mph100%29.74 "HgN/A
3:50 AM54 °FMostly cloudy.2 mph100%29.74 "HgN/A
3:20 AM54 °FPartly cloudy.2 mph100%29.77 "HgN/A
2:50 AM54 °FPartly cloudy.5 mph100%29.74 "HgN/A
2:20 AM54 °FLight rain. Passing clouds.3 mph100%29.74 "HgN/A
1:50 AM55 °FPassing clouds.3 mph100%29.74 "HgN/A
1:20 AM55 °FPassing clouds.6 mph100%29.74 "Hg5 mi
12:50 AM55 °FPassing clouds.5 mph100%29.74 "Hg2 mi
11:50 PM
Wed, Sep 2
55 °FRain. Partly cloudy.1 mph100%29.71 "Hg1 mi
11:20 PM55 °FPassing clouds.2 mph100%29.71 "HgN/A
10:50 PM55 °FPassing clouds.5 mph100%29.71 "HgN/A
10:20 PM57 °FPassing clouds.9 mph94%29.71 "HgN/A
9:50 PM57 °FPartly cloudy.5 mph94%29.71 "HgN/A
9:20 PM57 °FSprinkles. Partly cloudy.2 mph100%29.68 "HgN/A
8:50 PM57 °FSprinkles. Broken clouds.5 mph100%29.68 "HgN/A
8:20 PM57 °FSprinkles. Broken clouds.3 mph100%29.68 "HgN/A
7:50 PM57 °FScattered showers. Broken clouds.5 mph100%29.68 "HgN/A
7:20 PM59 °FSprinkles. Broken clouds.5 mph88%29.68 "HgN/A
6:50 PM59 °FScattered showers. Scattered clouds.7 mph88%29.68 "HgN/A
6:20 PM59 °FSprinkles. Scattered clouds.8 mph94%29.68 "HgN/A
5:50 PM59 °FScattered clouds.9 mph94%29.68 "HgN/A
5:20 PM59 °FScattered clouds.9 mph88%29.68 "HgN/A
4:50 PM59 °FBroken clouds.7 mph88%29.68 "HgN/A
4:20 PM59 °FSprinkles. Partly sunny.9 mph88%29.68 "HgN/A
3:50 PM63 °FScattered showers. Partly sunny.14 mph73%29.68 "HgN/A
3:20 PM63 °FPartly sunny.14 mph73%29.68 "HgN/A
Weather by CustomWeather, © 2015

See weather overviewHow to use our weather pages